Weather observations for the past three days for
Albert Whitted Airport
Metric (Imperial)
Date Time (edt) Wind (kph) Vis. (km) Weather Sky Cond. Temperature (ºC) Relative Humidity Wind Chill (°C) Heat Index (°C) Pressure Precipitation (cm)
Air Dwpt 6 hour altimeter (cm) sea level (mb) 1 hr 3 hr 6 hr
Max. Min.
05 20:53 N 9 16.09 Fair CLR 26.7 8.9 33% 26 76.1 1014.4
05 19:53 NW 15 16.09 Fair CLR 27.2 8.9 32.2 27.2 32% 27 76.05 1013.8
05 18:53 NW 17 16.09 Fair CLR 28.3 8.3 28% 27 76.05 1013.6
05 17:53 Vrbl 11 16.09 Fair CLR 28.9 7.8 27% 28 76.05 1013.6
05 16:53 W 9 16.09 Fair CLR 29.4 7.2 25% 28 76.02 1013.3
05 15:53 Calm 16.09 Fair CLR 31.7 7.8 23% 30 76.07 1014.0
05 14:53 Calm 16.09 Fair CLR 31.1 7.8 23% 29 76.1 1014.4
05 13:53 NE 6 16.09 Fair CLR 30 7.8 30 23.3 25% 28 76.15 1015.1
05 12:53 SE 7 16.09 Fair CLR 28.9 7.2 25% 28 76.2 1015.8
05 11:53 SE 13 16.09 Mostly Cloudy SCT044 BKN060 28.3 7.8 27% 27 76.2 1015.8
05 10:53 SE 17 16.09 Mostly Cloudy BKN038 27.8 7.8 28% 27 76.2 1015.8
05 09:53 SE 20 16.09 Fair CLR 26.1 7.2 30% 26 76.17 1015.3
05 08:53 E 20 16.09 Overcast OVC037 24.4 7.8 35% 25 76.15 1015.2
05 07:53 E 19 16.09 Overcast OVC040 23.3 7.2 23.9 22.8 36% 76.15 1015.3
05 06:53 E 19 16.09 Overcast OVC040 23.3 7.2 36% 76.1 1014.4
05 05:53 E 19 16.09 Fair CLR 23.3 7.8 37% 76.05 1014.0
05 04:53 E 19 16.09 Fair CLR 22.8 7.2 37% 76.02 1013.5
05 03:53 E 22 16.09 Partly Cloudy SCT049 23.3 6.7 34% 76.02 1013.6
05 02:53 E 19 16.09 Fair CLR 23.3 11.1 46% 76.07 1014.0
05 01:53 E 20 16.09 Overcast FEW038 BKN046 OVC060 23.9 18.3 27.8 23.9 71% 25 76.12 1014.9
05 00:53 E 19 16.09 Overcast FEW028 OVC040 23.9 17.2 66% 25 76.17 1015.4
04 23:53 E 22 16.09 Overcast SCT033 OVC042 24.4 17.2 64% 25 76.17 1015.5
04 22:53 E 19 16.09 Overcast SCT036 BKN048 OVC075 25 17.2 62% 26 76.2 1015.7
04 21:53 E 26 16.09 Mostly Cloudy SCT045 BKN055 BKN070 25.6 17.8 62% 27 76.15 1015.1
04 20:53 E 30 G 43 16.09 Overcast BKN050 OVC060 26.7 17.8 58% 28 76.1 1014.4
04 19:53 E 20 16.09 Overcast BKN055 BKN070 OVC090 27.8 18.3 30.6 27.8 56% 29 76 1013.3
04 18:53 NE 7 16.09 Fair CLR 28.9 17.2 49% 29 75.97 1012.8
04 17:53 NE 6 16.09 Fair CLR 30 15.6 42% 30 76 1013.0
04 16:53 NE 9 16.09 Fair CLR 30 14.4 39% 30 76 1013.2
04 15:53 NE 13 16.09 Fair CLR 29.4 15 42% 29 76.05 1013.8
04 14:53 NE 11 16.09 Fair CLR 28.3 14.4 43% 28 76.1 1014.5
04 13:53 NE 11 16.09 Fair CLR 28.3 13.9 28.3 22.8 41% 28 76.17 1015.6
04 12:53 E 20 16.09 Fair CLR 27.8 14.4 44% 28 76.23 1016.2
04 11:53 E 24 16.09 Fair CLR 27.2 15 47% 27 76.28 1016.8
04 10:53 E 28 16.09 Fair CLR 25.6 16.1 56% 26 76.28 1016.9
04 09:53 E 30 16.09 Fair CLR 24.4 16.7 62% 25 76.28 1016.8
04 08:53 NE 28 16.09 Fair CLR 23.3 16.7 67% 76.25 1016.3
04 07:53 E 26 16.09 Fair CLR 22.8 17.2 23.3 21.7 71% 76.2 1015.9
04 06:53 NE 24 16.09 Mostly Cloudy BKN060 22.2 16.7 71% 76.17 1015.4
04 05:53 N 22 16.09 Fair CLR 22.2 17.2 73% 76.15 1015.1
04 04:53 N 15 16.09 Fair CLR 22.8 16.7 69% 76.12 1015.0
04 03:53 NE 20 16.09 A Few Clouds FEW060 23.3 17.2 69% 76.15 1015.1
04 02:53 NE 15 16.09 Mostly Cloudy BKN043 BKN050 23.3 17.2 69% 76.2 1015.8
04 01:53 E 24 16.09 Overcast OVC045 23.3 17.2 26.7 23.3 69% 76.2 1015.7
04 00:53 NE 22 16.09 Fair CLR 23.9 17.8 69% 25 76.25 1016.3
03 23:53 E 28 16.09 Mostly Cloudy SCT040 BKN048 23.9 17.2 66% 25 76.3 1017.1
03 22:53 E 28 16.09 Partly Cloudy SCT043 24.4 17.8 67% 25 76.28 1016.8
03 21:53 E 28 16.09 Overcast OVC044 25 17.8 64% 26 76.23 1016.1
03 20:53 Calm 16.09 Overcast OVC040 25.6 16.7 58% 26 76.15 1015.2
03 19:53 Calm 16.09 Mostly Cloudy SCT047 BKN055 26.7 15.6 27.8 24.4 51% 27 76.1 1014.5
03 18:53 SE 6 11.27 A Few Clouds FEW120 26.7 15 49% 27 76.1 1014.5
03 17:53 Calm 6.44 Fair with Haze CLR 27.2 15 47% 27 76.1 1014.6
03 16:53 E 9 16.09 Partly Cloudy SCT025 27.2 15.6 49% 28 76.12 1014.7
03 15:53 E 11 16.09 Fair CLR 26.7 16.1 52% 27 76.17 1015.4
03 14:53 NE 17 16.09 Fair CLR 26.1 16.7 56% 27 76.25 1016.5
03 13:53 NE 19 16.09 Partly Cloudy SCT028 24.4 16.7 24.4 20.6 62% 25 76.3 1017.3
03 12:53 NE 20 16.09 Fair CLR 23.9 16.7 64% 25 76.35 1017.7
03 11:53 NE 22 16.09 Overcast OVC055 22.8 16.1 66% 76.38 1018.0
03 10:53 NE 30 16.09 Overcast OVC050 22.2 15.6 66% 76.35 1017.8
03 09:53 NE 26 16.09 Overcast OVC050 21.1 15.6 71% 76.3 1017.3
03 08:53 NE 28 16.09 Overcast OVC048 20.6 16.1 76% 76.28 1016.8
03 07:53 N 26 16.09 Overcast OVC047 21.1 17.2 22.2 20.6 79% 76.2 1015.8 0.03
03 06:53 NE 26 16.09 Overcast OVC044 21.1 17.2 79% 76.15 1015.1
03 05:53 NE 26 16.09 Overcast OVC040 21.1 17.8 82% 76.15 1015.0
03 04:53 N 17 16.09 Overcast FEW012 OVC035 20.6 17.8 84% 76.1 1014.4 0.03 0.03
03 03:53 N 20 16.09 Overcast FEW012 OVC032 21.7 18.9 84% 76.07 1014.0
03 02:53 N 13 16.09 Light Rain SCT025 OVC034 22.2 19.4 84% 76.05 1013.6
03 01:53 N 19 16.09 Light Rain BKN020 OVC027 22.2 19.4 24.4 22.2 84% 76.07 1014.1 0.05
03 00:53 N 17 16.09 Overcast BKN015 OVC025 22.8 20 84% 76.07 1014.0
02 22:53 W 6 16.09 Light Rain OVC016 22.8 20.6 87% 75.97 1012.6 0.05 0.05
02 21:53 SW 9 16.09 Overcast FEW015 BKN022 OVC027 24.4 21.1 82% 25 75.92 1012.3
Date Time (edt) Wind (kph) Vis. (km) Weather Sky Cond. Air Dwpt Max. Min. Relative Humidity Wind Chill (°C) Heat Index (°C) altimeter (cm) sea level (mb) 1 hr 3 hr 6 hr
6 hour
Temperature (ºC) Pressure Precipitation (cm)